Location: Misciano
(43.5000°N, 11.9500°E)
Time: 21:38:02
(UTC+00:00)

Cosmos 1862 Rocket - Pass Details

Date: 13 August 2020
Orbit: 603 x 635 km, 82.5° (Epoch: 22 September)

Event Time Altitude Azimuth Distance (km) Brightness Sun altitude
Rises 19:41:24 0° 353° (N) 2,930 7.7 -14.1°
Reaches altitude 10° 19:43:40 10° 356° (N) 2,014 6.8 -14.4°
Maximum altitude 19:48:07 71° 80° (E) 663 3.5 -15.1°
Enters shadow 19:50:57 22° 162° (SSE) 1,374 4.9 -15.5°
